Lapse_Rate
2.3 2.6 4.0 4.9 5.6 6.2 6.1 6.2 6.1 6.1 6.2 6.2 6.2 6.1 6.0 6.0 6.4 6.3 6.4 6.4 6.2 6.5 6.4 6.8 6.9 7.2 6.7 6.2 6.0 5.9 5.7 5.6 5.5 5.2 5.4 5.8 6.0 6.0 5.8 5.3 5.8 7.0 6.1
2.6 2.6 4.0 5.4 6.0 6.2 6.1 6.1 6.0 6.2 6.2 6.2 6.2 5.9 6.0 6.3 6.7 6.8 6.5 6.4 6.5 6.7 6.8 7.2 7.0 6.2 6.8 6.5 5.8 5.8 5.6 5.4 5.2 5.0 5.3 5.7 5.9 6.0 5.6 5.6 6.0 6.3 6.3
3.2 3.4 4.6 5.2 6.0 6.0 6.1 5.9 5.9 6.0 6.2 6.3 6.0 6.2 6.6 6.6 6.6 6.6 6.9 6.1 6.2 6.3 6.1 6.6 7.0 6.2 6.0 5.9 5.6 5.5 5.4 5.3 5.0 5.0 5.5 6.7 6.4 5.8 5.6 5.4 5.9 6.0 5.8
3.7 3.8 4.5 5.6 5.9 6.0 6.1 5.8 5.9 6.0 6.2 6.4 6.4 6.4 6.5 6.7 6.7 6.7 6.1 6.0 6.1 6.4 6.3 6.2 6.0 6.0 5.8 5.6 5.4 5.1 4.8 4.3 4.3 5.1 6.2 6.6 6.7 5.9 5.8 5.7 6.0 6.1 6.3
4.4 4.2 4.5 5.8 5.8 5.9 5.7 5.7 5.8 5.9 6.1 6.2 6.1 6.2 6.3 6.6 6.1 5.5 5.3 4.7 4.9 5.4 5.9 5.8 5.9 5.7 5.8 5.8 5.5 5.2 4.6 4.1 4.2 4.8 5.5 6.0 6.3 5.9 5.6 5.4 5.9 5.9 6.1
4.8 4.4 4.9 5.5 5.7 5.6 5.6 5.7 5.9 6.1 6.1 6.3 6.5 6.3 6.3 6.1 5.9 5.7 5.6 5.9 5.1 5.7 5.8 6.2 5.7 5.5 5.2 5.3 5.0 4.6 4.3 3.9 4.6 5.1 5.4 5.7 6.1 6.1 5.4 5.4 5.5 6.0 5.9
4.0 4.7 5.3 5.8 5.6 5.5 5.6 5.7 5.9 5.9 6.0 6.1 6.1 6.2 6.4 6.4 6.3 6.0 6.0 5.8 5.8 6.0 6.2 5.9 5.6 4.9 4.7 4.6 4.6 4.0 3.4 3.3 5.2 5.2 5.7 6.6 6.8 6.7 6.5 5.8 5.7 5.9 6.0
4.7 4.3 5.6 6.5 5.8 5.6 5.5 5.6 5.8 5.8 6.0 6.5 5.9 6.2 6.2 5.9 5.7 6.0 5.8 5.8 6.1 6.1 5.9 5.9 5.8 5.0 4.5 4.6 4.5 3.7 3.1 3.5 4.7 5.0 5.6 6.8 6.5 6.7 6.6 6.5 6.1 6.0 6.2
4.7 4.5 4.6 6.3 6.5 6.1 6.2 5.9 5.5 5.6 5.7 5.1 4.6 4.3 4.3 4.5 4.9 5.3 5.7 5.8 5.3 5.9 5.8 5.5 5.2 4.7 4.4 4.1 3.6 3.3 2.8 2.6 4.7 4.6 5.0 6.3 6.4 6.7 6.2 6.0 6.2 6.0 6.0
3.6 4.1 3.8 4.8 4.1 5.3 6.5 5.7 5.1 4.1 4.1 3.8 3.1 2.5 2.0 1.8 2.7 3.1 3.3 3.9 4.2 4.7 4.6 4.4 3.9 4.2 3.9 3.3 3.2 2.3 2.4 2.5 3.0 3.0 3.6 6.6 6.3 6.4 6.1 5.9 6.0 6.2 5.9
3.0 3.4 3.4 3.3 2.9 3.7 3.7 3.6 3.2 2.9 2.5 2.4 2.3 1.8 1.5 0.5 0.5 -0.2 0.8 2.6 3.3 3.7 3.9 3.5 2.9 2.4 2.1 1.9 1.8 1.3 1.4 1.3 1.9 2.2 3.0 5.3 5.8 6.0 5.7 5.7 6.1 5.8 5.9
3.6 2.6 2.5 1.9 1.3 0.9 1.0 -0.3 0.4 -0.1 -0.2 0.2 -0.2 1.4 0.7 0.7 -0.4 -1.0 -1.1 -1.0 -0.9 -0.4 0.6 1.0 1.3 1.0 0.8 0.5 0.4 1.1 1.6 1.7 1.0 1.9 3.3 5.3 5.8 5.9 5.9 5.6 5.5 5.9 5.8
2.2 1.8 1.8 0.4 0.1 0.1 -0.6 -1.6 -0.6 -0.6 -1.0 -0.5 -0.6 -0.8 -0.4 -0.2 -0.4 -1.0 -1.2 -1.6 -1.1 -1.6 -1.0 -0.7 0.2 0.5 1.0 0.8 -0.1 0.1 0.1 -0.0 0.8 1.6 2.7 4.0 6.0 6.1 5.9 5.9 5.6 5.6 6.0
2.4 1.2 0.3 0.3 -0.5 -0.1 -0.4 -0.7 -0.5 -0.5 -1.3 -2.0 -0.9 -0.9 -1.3 -1.8 -1.4 -0.9 -1.1 -1.4 -1.4 -1.6 -1.3 -0.9 -0.5 -0.4 -0.4 -0.3 -0.2 -0.2 -0.3 -0.5 -0.7 -0.5 1.5 2.9 3.7 5.6 5.6 5.8 5.7 5.7 5.8
2.3 0.8 0.0 -0.3 -0.0 -0.4 -0.6 -0.6 -0.3 -0.5 -0.6 -1.0 -1.1 -1.2 -1.5 -1.9 -2.1 -2.3 -1.8 -1.9 -2.1 -2.1 -1.7 -1.5 -0.8 -0.2 -1.1 -0.6 -0.6 -0.4 -0.7 -0.7 -0.6 -0.9 -1.2 1.3 2.5 3.4 3.8 5.0 5.7 5.7 5.7
2.0 0.4 -0.1 -0.4 -0.8 -0.2 -0.6 -0.9 -1.1 -0.6 -0.8 -0.8 -1.0 -1.1 -1.5 -1.8 -1.9 -2.0 -2.3 -2.1 -2.3 -2.5 -2.6 -2.2 -1.7 -1.1 -0.8 -1.0 -0.9 -0.9 -0.8 -0.8 -0.8 -0.8 -1.6 -1.6 0.1 2.2 3.4 3.9 4.2 5.5 5.4
2.5 0.6 -0.4 -1.4 -1.2 -0.3 -1.0 -1.1 -0.7 -0.5 -0.6 -0.8 -0.7 -0.7 -1.0 -1.4 -1.0 -1.6 -1.9 -2.3 -2.7 -3.0 -3.0 -3.0 -3.3 -2.8 -1.6 -1.6 -1.0 -1.1 -0.9 -0.8 -0.6 -0.8 -0.8 -1.5 -2.2 -0.7 1.4 2.5 3.6 5.2 5.4
1.7 1.3 0.8 -0.1 -1.3 -1.7 -0.8 -0.7 -0.8 -0.8 -1.1 -0.7 -0.6 -0.7 -0.7 -1.1 -1.0 -1.0 -1.4 -2.0 -2.1 -2.2 -2.7 -2.7 -2.9 -3.3 -2.7 -0.9 -1.2 -1.9 -1.5 -1.0 -0.9 -0.7 -1.2 -1.5 -1.8 -2.0 -1.9 0.2 1.8 3.4 5.4
1.9 1.0 -0.1 -0.6 -1.5 -2.0 -2.2 -2.3 -2.0 -1.2 -1.3 -1.1 -0.6 -0.7 -0.8 -1.1 -0.9 -0.8 -1.1 -1.5 -1.4 -1.8 -1.9 -1.5 -3.3 -2.5 -2.5 -0.8 -0.4 -1.0 -1.2 -1.7 -1.9 -0.9 -1.0 -1.0 -1.6 -2.4 -2.3 -1.3 -0.6 1.2 3.5
1.6 0.8 -0.0 -0.6 -1.7 -2.5 -2.6 -2.8 -2.5 -0.2 -1.4 -0.7 -0.6 -0.7 -0.8 -1.3 -1.0 -0.6 -0.8 -0.9 -1.1 -1.5 -2.0 -2.1 -2.0 -3.6 -2.9 -1.7 -0.5 -0.6 -0.5 -0.5 -0.2 -0.0 0.3 0.3 -0.9 -1.4 -1.6 -1.7 -1.5 -1.0 1.5
0.9 0.8 -0.2 -1.0 -1.8 -2.0 -2.2 -2.3 -0.8 0.0 -1.6 -1.1 -0.7 -0.7 -0.7 -0.8 -0.9 -0.7 -0.7 -0.4 -0.5 -0.6 -1.1 -1.2 -1.8 -1.7 -2.8 -2.6 -0.3 0.6 0.2 -0.1 -0.1 -0.5 -0.4 -0.4 -0.6 -1.3 -1.4 -1.0 -0.7 -0.9 -0.4
2.1 1.1 0.2 -0.6 -0.9 -1.0 -1.2 -1.9 -1.6 -1.9 -1.8 -0.4 -1.2 -0.9 -0.7 -0.5 -0.6 -0.3 -0.2 -0.6 -0.4 -0.6 -0.7 -0.2 0.2 -1.8 -1.9 -2.3 0.5 1.9 3.0 2.7 1.5 0.5 0.2 0.3 -0.5 -0.6 -0.7 -0.9 -0.6 -0.4 -0.1
2.1 1.2 0.6 -0.1 -0.6 -1.2 -1.7 -1.4 -1.3 -1.0 0.3 -0.4 -0.7 -0.7 -0.7 -0.6 -0.5 -0.6 -0.4 -0.3 -0.3 -0.1 -0.3 -0.1 0.5 0.8 -0.3 -1.3 -0.8 2.5 3.1 4.8 2.8 1.6 1.0 0.8 0.6 0.4 -0.1 -0.2 -0.4 -0.3 0.1
2.5 1.7 0.9 0.0 -0.5 -1.1 -0.6 -0.3 0.3 -0.6 -0.5 -0.9 -0.7 -0.1 -0.7 -0.6 -0.6 -0.5 -0.6 -0.5 -0.2 -0.1 0.2 0.8 0.6 0.4 0.9 0.8 -0.2 -0.1 0.3 1.9 4.1 3.7 2.5 1.8 1.2 1.2 0.6 0.4 0.4 0.5 0.8
2.4 1.4 0.8 -0.0 -0.4 -0.8 -0.5 0.7 0.1 -0.4 -0.8 0.5 0.4 0.8 -0.1 -0.5 -0.3 -0.4 -0.5 -0.8 -0.6 -0.4 0.1 0.5 0.6 1.3 1.3 1.6 1.4 1.1 1.4 1.4 1.6 3.4 3.8 3.2 3.0 1.9 1.0 1.0 0.9 1.1 1.1
2.5 1.6 0.9 0.3 0.0 -0.0 0.1 0.7 0.7 0.5 1.6 0.7 1.1 0.6 -0.0 -0.1 -0.4 -0.5 -0.4 -0.7 -0.8 -0.5 0.1 0.0 0.1 0.9 1.3 1.7 1.6 1.8 2.8 3.7 3.2 3.2 3.1 3.2 4.4 3.2 2.5 2.1 2.1 2.1 2.0
Wind_Speed
6 14 17 12 13 20 21 20 18 17 18 18 19 19 18 17 17 16 17 19 19 20 21 22 22 21 22 23 23 23 24 22 22 21 21 20 21 21 20 18 18 20 21
10 14 15 13 20 22 21 19 18 16 19 19 19 19 20 19 18 17 18 19 18 20 22 22 22 22 22 23 23 23 22 22 21 20 22 22 23 21 20 18 18 19 20
13 14 12 13 21 20 20 18 16 14 16 19 20 21 22 21 20 19 21 22 18 19 21 21 20 21 22 22 21 21 20 19 18 19 18 17 18 20 20 19 17 17 19
11 12 9 19 20 20 19 19 18 16 15 17 19 20 21 21 20 22 25 24 23 21 19 19 19 20 20 20 20 20 19 17 17 17 16 15 16 17 18 17 18 16 16
9 11 11 17 19 20 21 20 18 16 16 18 19 21 21 21 21 25 23 22 16 15 18 20 22 21 21 20 20 19 18 17 18 16 16 14 14 15 16 16 16 17 15
8 8 13 19 21 21 21 20 20 18 17 17 18 21 23 24 23 19 18 20 20 16 17 22 21 23 22 21 19 18 17 15 15 14 15 14 14 15 15 16 15 17 17
6 8 13 22 23 23 22 22 22 22 22 22 21 20 21 22 21 19 19 19 19 17 18 19 20 23 22 21 19 20 18 17 13 13 13 13 14 15 16 16 15 15 17
8 6 12 24 25 26 27 23 23 24 25 25 26 26 25 23 22 23 21 18 16 16 16 16 17 21 22 21 20 21 20 18 15 14 11 13 14 16 15 16 16 14 14
8 7 8 11 23 26 27 29 26 25 30 32 33 31 30 28 26 23 20 17 16 16 17 17 17 19 19 21 22 21 22 20 17 15 12 10 13 14 14 14 14 14 12
5 7 8 12 13 12 21 26 29 33 30 32 32 30 28 27 26 22 19 18 15 16 18 19 20 20 20 20 20 19 19 17 19 17 15 10 12 13 12 12 10 12 11
4 5 8 12 16 21 25 29 29 32 31 26 25 30 25 22 23 23 23 19 18 17 17 19 20 19 21 21 21 20 19 15 18 18 13 16 15 15 14 14 12 10 9
5 5 7 13 16 21 17 21 17 18 17 17 14 18 23 20 20 19 19 19 21 18 17 15 15 15 16 14 15 17 15 16 20 20 21 14 13 14 13 12 10 9 8
5 6 8 11 17 19 15 16 14 15 17 15 16 19 20 17 14 13 12 11 11 12 9 10 10 12 14 14 16 15 15 15 17 18 25 31 13 11 10 8 9 6 8
6 9 9 11 13 15 14 13 13 14 15 13 15 18 17 14 13 11 10 9 9 8 10 10 11 13 16 17 16 16 17 16 15 16 26 29 29 27 24 7 8 7 8
9 7 9 9 10 13 13 13 13 12 13 14 15 17 16 13 12 12 11 10 9 8 10 11 12 13 15 16 16 17 17 17 16 15 18 29 29 28 31 30 12 13 12
9 9 9 9 9 15 10 13 12 14 15 15 14 13 18 15 14 12 10 10 10 10 10 11 12 13 14 14 16 17 17 16 16 15 15 18 27 29 29 30 30 23 18
11 12 11 10 12 7 13 13 14 14 14 14 14 15 15 14 17 14 12 9 9 10 13 13 14 14 15 14 15 15 14 14 14 15 14 15 15 24 29 29 30 28 27
13 12 12 11 13 9 8 11 12 14 15 13 13 15 13 16 16 15 12 9 12 12 11 10 10 7 7 9 7 11 12 13 14 15 15 15 16 16 18 26 29 30 26
13 14 13 12 14 11 10 16 14 8 14 13 14 14 14 16 15 14 12 12 14 11 10 9 6 5 6 8 9 10 12 12 13 13 15 15 16 17 16 18 22 29 25
13 13 14 10 13 12 9 14 14 3 12 12 11 13 15 14 16 15 12 11 13 11 8 9 7 8 5 7 9 9 10 12 13 14 14 14 15 16 15 15 16 18 23
13 14 14 15 12 10 9 9 7 5 6 5 10 12 14 14 14 14 12 11 10 7 7 10 5 9 4 2 4 7 7 10 12 12 12 13 14 14 16 16 15 13 14
13 14 13 13 13 9 6 4 4 4 5 5 10 11 14 13 13 12 11 10 10 7 7 5 4 3 3 3 2 3 3 3 6 8 10 11 12 12 14 15 15 15 15
13 14 13 13 12 10 12 8 8 9 7 3 5 5 9 14 13 13 12 10 9 8 5 4 3 4 3 3 4 1 3 2 3 3 7 7 9 9 10 12 14 14 15
11 12 13 13 12 11 11 11 10 6 7 2 4 5 9 12 12 13 13 12 10 8 5 5 4 3 3 4 2 3 4 3 3 3 3 4 7 7 9 9 11 13 14
12 12 12 13 11 11 10 10 8 9 7 5 6 7 7 11 11 11 12 13 11 8 6 6 5 4 2 3 2 2 2 3 3 2 3 3 4 5 6 7 8 10 11
11 12 12 13 12 11 10 9 11 12 10 8 6 6 5 4 8 10 12 11 11 10 8 7 7 6 4 5 3 3 2 2 2 2 3 2 4 3 4 5 6 7 8
Wind_Direction
195 175 174 182 180 157 147 146 142 141 140 135 131 134 130 125 119 122 118 115 108 107 105 101 98 95 93 93 92 91 91 92 95 90 89 91 91 92 92 87 96 93 95
159 177 167 181 167 153 149 145 145 152 141 140 140 137 129 125 121 115 114 104 107 105 99 99 98 96 94 94 91 90 87 87 85 85 88 88 90 91 84 86 90 93 95
161 174 161 176 155 151 148 144 145 142 149 144 143 138 130 119 114 113 101 93 89 90 88 90 96 99 94 93 91 90 87 84 80 79 81 89 89 87 87 86 91 91 98
161 163 150 160 153 151 149 147 149 152 155 151 145 138 130 122 116 108 95 80 78 78 81 90 93 94 99 96 93 91 87 82 81 78 81 84 89 88 88 84 90 90 100
164 151 154 154 150 147 144 144 145 146 147 145 143 138 131 122 111 105 98 105 101 92 91 93 87 87 96 92 88 82 81 79 80 81 87 84 87 87 87 88 86 87 89
145 143 161 154 149 145 138 137 136 133 132 131 131 133 131 125 119 110 111 117 111 115 105 94 93 89 87 86 84 80 76 73 75 78 80 90 93 97 91 90 87 82 89
117 147 171 156 144 137 132 131 127 122 119 118 119 120 121 120 118 112 110 112 113 110 105 103 98 94 90 85 77 75 69 67 74 73 75 82 95 89 99 95 92 86 89
128 128 165 159 144 135 132 126 124 121 116 110 108 103 101 101 99 91 89 88 97 109 108 105 102 98 94 91 83 73 65 65 65 61 70 82 93 91 83 87 95 91 90
121 117 106 144 147 140 132 132 123 115 103 95 87 83 79 77 78 79 84 87 79 86 102 102 100 95 92 81 75 69 61 57 65 53 48 79 87 90 86 82 86 90 89
108 120 108 105 97 118 129 119 108 103 103 104 98 87 80 71 68 66 66 74 80 78 85 91 91 90 89 89 80 69 66 47 55 38 30 69 85 93 90 86 97 95 94
102 117 115 97 91 94 100 100 101 100 101 97 96 99 81 70 65 58 54 69 73 75 83 84 85 86 85 79 75 67 61 49 54 34 12 46 77 80 76 76 93 95 99
133 109 113 108 106 101 102 103 94 96 91 88 85 97 92 85 76 73 62 59 60 62 68 71 80 82 72 72 66 65 68 65 57 42 32 33 60 67 63 68 82 100 105
119 101 110 114 117 116 113 109 106 101 97 88 88 90 98 96 88 79 73 60 61 60 65 73 72 71 73 73 65 60 60 54 59 50 37 44 73 57 62 59 59 79 110
124 110 102 113 114 114 115 106 111 108 107 91 97 101 105 101 95 89 83 77 75 75 83 81 79 77 71 71 71 69 61 55 48 47 42 45 51 52 58 83 53 76 115
128 111 106 112 122 120 114 115 109 109 103 114 106 108 109 105 102 97 91 85 82 82 85 90 89 87 78 75 68 69 63 56 55 48 41 47 48 48 49 49 62 75 98
128 114 111 104 110 125 119 115 115 111 113 108 103 111 112 113 109 105 97 90 86 88 86 88 93 92 83 77 70 63 60 57 56 53 45 39 44 47 48 48 45 63 70
145 134 120 107 83 98 112 123 116 115 110 108 110 109 113 115 115 110 103 94 97 96 99 97 88 86 86 76 68 64 62 57 54 52 47 45 40 43 47 49 48 59 64
140 140 133 130 117 96 100 106 107 114 110 108 112 108 112 113 115 112 109 105 111 99 93 92 95 84 81 82 72 58 58 57 56 49 48 47 39 42 41 44 47 49 59
142 138 125 128 117 110 128 95 92 84 104 109 111 110 111 112 113 110 113 116 116 102 91 99 70 90 94 91 82 70 58 53 51 53 52 50 42 41 40 41 44 46 50
138 133 128 124 122 118 112 98 89 139 95 99 104 111 114 113 118 114 111 118 119 111 100 95 96 70 91 97 90 73 61 58 56 51 50 53 52 48 44 44 47 46 47
135 134 136 131 130 130 127 119 119 151 104 94 97 106 109 114 117 117 116 117 116 113 120 114 106 106 74 76 110 86 65 58 55 49 50 52 50 48 49 49 47 43 43
144 139 139 136 140 135 127 108 129 113 80 95 98 101 107 111 117 118 120 121 121 119 114 122 146 116 95 23 103 106 133 105 63 44 49 53 50 53 55 54 56 53 50
143 142 139 139 135 127 114 111 101 98 102 96 84 85 95 109 109 113 115 116 120 127 131 124 124 119 128 66 58 106 143 145 132 39 50 55 59 62 61 57 56 55 55
132 128 129 130 127 126 132 130 138 123 132 82 109 100 94 99 104 108 110 111 113 112 114 125 126 106 114 132 96 57 60 110 144 145 69 55 59 57 58 65 64 59 57
120 124 124 122 122 126 129 132 119 108 100 110 102 110 92 86 96 101 106 109 109 112 118 129 123 121 85 130 120 144 95 72 78 130 141 136 87 52 54 55 63 63 58
115 118 123 123 124 123 123 122 123 124 139 127 129 112 98 89 85 95 100 100 109 112 114 108 104 100 99 104 108 107 122 137 145 141 122 134 133 78 71 69 72 71 66